Weather History for KAOO - July, 2013

Change the Weather History Date:

Tuesday, July 23, 2013

  Actual Average Record
Temperature  
Mean Temperature 75 °F 71 °F  
Max Temperature 82 °F 82 °F 97 °F (2011)
Min Temperature 67 °F 60 °F 50 °F (1981)
Degree Days  
Heating Degree Days 0 0  
Month to date heating degree days 0 1  
Since 1 June heating degree days 20 59  
Since 1 July heating degree days 0 1  
Cooling Degree Days 10 6  
Month to date cooling degree days 252 137  
Year to date cooling degree days 454 279  
Since 1 June cooling degree days 380 246  
Growing Degree Days 25 (Base 50)    
Moisture  
Dew Point 65 °F    
Average Humidity 76    
Maximum Humidity 97    
Minimum Humidity 54    
Precipitation  
Precipitation 0.02 in 0.11 in 1.47 in (1992)
Month to date precipitation 1.85 2.45  
Year to date precipitation 15.99 20.11  
Sea Level Pressure  
Sea Level Pressure 29.75 in    
Wind  
Wind Speed 6 mph (West)    
Max Wind Speed 15 mph    
Max Gust Speed 21 mph    
Visibility 9 miles    
Events Rain    
T = Trace of Precipitation, MM = Missing Value Source: NWS Daily Summary

Daily Weather History Graph

Daily Weather History Graph

Search for Another Location

Airport or City:

Trip Planner

Search our weather history database for the weather conditions in past years. The results will help you decide how hot, cold, wet, or windy it might be!

Date:

Astronomy

Jul. 23, 2013 Rise Set
Actual Time 6:02 AM EDT 8:36 PM EDT
Civil Twilight 5:31 AM EDT 9:07 PM EDT
Nautical Twilight 4:52 AM EDT 9:46 PM EDT
Astronomical Twilight 4:08 AM EDT 10:29 PM EDT
Moon 9:02 PM EDT (7/23) 7:09 AM EDT (7/23)
Length of Visible Light 15h 35m
Length of Day
14h 33m
Full, 99% of the Moon is Illuminated
Jul 23
Full
Jul 29
Last Quarter
Aug 6
New
Aug 14
First Quarter
Aug 20
Full

Hourly Weather History & Observations

Time (EDT) Temp. Heat Index Dew Point Humidity Pressure Visibility Wind Dir Wind Speed Gust Speed Precip Events Conditions
12:53 AM 70.0 °F - 68.0 °F 93% 29.78 in 8.0 mi Calm Calm - 0.01 in   Overcast
1:53 AM 70.0 °F - 68.0 °F 93% 29.76 in 4.0 mi Calm Calm - N/A   Overcast
2:53 AM 70.0 °F - 68.0 °F 93% 29.76 in 4.0 mi Calm Calm - 0.00 in Rain Light Rain
3:53 AM 69.1 °F - 66.9 °F 93% 29.75 in 4.0 mi Calm Calm - 0.02 in Rain Light Rain
4:53 AM 69.1 °F - 66.9 °F 93% 29.74 in 6.0 mi Calm Calm - 0.00 in   Overcast
5:53 AM 69.1 °F - 66.0 °F 90% 29.74 in 10.0 mi SSW 3.5 mph - N/A   Overcast
6:01 AM 69.8 °F - 66.2 °F 88% 29.77 in 9.0 mi SSW 3.5 mph - N/A   Overcast
6:53 AM 69.1 °F - 66.0 °F 90% 29.75 in 5.0 mi SSW 4.6 mph - N/A   Overcast
7:53 AM 70.0 °F - 66.9 °F 90% 29.75 in 5.0 mi WSW 3.5 mph - N/A   Overcast
8:53 AM 71.1 °F - 66.9 °F 87% 29.75 in 8.0 mi SW 6.9 mph - N/A   Overcast
9:36 AM 71.6 °F - 64.4 °F 78% 29.78 in 10.0 mi WNW 6.9 mph - N/A   Overcast
9:53 AM 73.0 °F - 66.0 °F 79% 29.75 in 10.0 mi WNW 8.1 mph - N/A   Overcast
10:05 AM 71.6 °F - 64.4 °F 78% 29.77 in 10.0 mi West 8.1 mph - N/A   Overcast
10:53 AM 72.0 °F - 64.9 °F 78% 29.75 in 10.0 mi WNW 6.9 mph - N/A   Overcast
11:12 AM 73.4 °F - 66.2 °F 78% 29.78 in 10.0 mi NNW 5.8 mph - N/A   Overcast
11:19 AM 73.4 °F - 64.4 °F 73% 29.78 in 10.0 mi NW 6.9 mph - N/A   Overcast
11:39 AM 73.4 °F - 64.4 °F 73% 29.78 in 10.0 mi NW 9.2 mph - N/A   Overcast
11:53 AM 73.0 °F - 63.0 °F 71% 29.75 in 10.0 mi NW 8.1 mph - N/A   Overcast
12:09 PM 75.2 °F - 64.4 °F 69% 29.78 in 10.0 mi NW 9.2 mph - N/A   Mostly Cloudy
12:18 PM 77.0 °F - 64.4 °F 65% 29.79 in 10.0 mi WNW 10.4 mph - N/A   Mostly Cloudy
12:53 PM 75.9 °F - 64.0 °F 67% 29.76 in 10.0 mi WNW 9.2 mph - N/A   Overcast
1:53 PM 79.0 °F - 64.0 °F 60% 29.73 in 10.0 mi WNW 9.2 mph 16.1 mph N/A   Partly Cloudy
2:53 PM 80.1 °F 81.7 °F 64.0 °F 58% 29.73 in 10.0 mi West 9.2 mph - N/A   Mostly Cloudy
3:53 PM 80.1 °F 81.7 °F 64.0 °F 58% 29.72 in 7.0 mi WNW 8.1 mph - N/A   Scattered Clouds
4:53 PM 81.0 °F 82.5 °F 64.0 °F 56% 29.70 in 10.0 mi WNW 10.4 mph - N/A   Clear
5:53 PM 81.0 °F 82.2 °F 63.0 °F 54% 29.71 in 10.0 mi WNW 11.5 mph - N/A   Scattered Clouds
6:53 PM 79.0 °F - 63.0 °F 58% 29.71 in 10.0 mi WNW 8.1 mph - N/A   Partly Cloudy
7:53 PM 75.9 °F - 64.9 °F 69% 29.70 in 10.0 mi WSW 3.5 mph - N/A   Clear
8:53 PM 73.0 °F - 66.0 °F 79% 29.71 in 10.0 mi SSW 3.5 mph - N/A   Clear
9:53 PM 73.0 °F - 64.9 °F 76% 29.72 in 10.0 mi WSW 5.8 mph - N/A   Clear
10:53 PM 71.1 °F - 64.0 °F 78% 29.73 in 10.0 mi West 5.8 mph - N/A   Clear
11:53 PM 70.0 °F - 60.1 °F 71% 29.75 in 10.0 mi WNW 5.8 mph - N/A   Clear